Time,TemperatureF,DewpointF,PressureIn,WindDirection,WindDirectionDegrees,WindSpeedMPH,WindSpeedGustMPH,Humidity,HourlyPrecipIn,Conditions,Clouds,dailyrainin,SoftwareType,DateUTC
2013-03-08 00:02:00,47.0,40.0,30.18,NE,50,0.0,0.0,76,0.00,,,0.00,,2013-03-08 05:02:00,
2013-03-08 00:12:00,47.0,40.0,30.18,NE,50,0.0,0.0,76,0.00,,,0.00,,2013-03-08 05:12:00,
2013-03-08 00:22:00,46.0,39.0,30.18,NE,50,0.0,0.0,76,0.00,,,0.00,,2013-03-08 05:22:00,
2013-03-08 00:33:00,46.0,40.0,30.18,NE,50,0.0,0.0,78,0.00,,,0.00,,2013-03-08 05:33:00,
2013-03-08 00:42:00,46.0,40.0,30.18,NE,50,0.0,0.0,78,0.00,,,0.00,,2013-03-08 05:42:00,
2013-03-08 00:52:00,46.0,40.0,30.18,NE,50,0.0,0.0,78,0.00,,,0.00,,2013-03-08 05:52:00,
2013-03-08 01:02:00,46.0,40.0,30.18,NE,50,0.0,0.0,79,0.00,,,0.00,,2013-03-08 06:02:00,
2013-03-08 01:11:00,46.0,40.0,30.18,NE,50,0.0,0.0,79,0.00,,,0.00,,2013-03-08 06:11:00,
2013-03-08 01:22:00,46.0,40.0,30.18,NE,50,0.0,0.0,79,0.00,,,0.00,,2013-03-08 06:22:00,
2013-03-08 01:32:00,45.0,39.0,30.18,NE,50,0.0,0.0,79,0.00,,,0.00,,2013-03-08 06:32:00,
2013-03-08 01:42:00,45.0,39.0,30.18,NE,50,0.0,0.0,79,0.00,,,0.00,,2013-03-08 06:42:00,
2013-03-08 01:52:00,45.0,39.0,30.18,NE,50,0.0,0.0,79,0.00,,,0.00,,2013-03-08 06:52:00,
2013-03-08 02:01:00,45.0,39.0,30.18,NE,50,0.0,0.0,80,0.00,,,0.00,,2013-03-08 07:01:00,
2013-03-08 02:11:00,45.0,39.0,30.18,NE,50,0.0,0.0,80,0.00,,,0.00,,2013-03-08 07:11:00,
2013-03-08 02:22:00,44.0,39.0,30.18,NE,50,0.0,0.0,81,0.00,,,0.00,,2013-03-08 07:22:00,
2013-03-08 02:32:00,44.0,39.0,30.18,NE,50,0.0,0.0,81,0.00,,,0.00,,2013-03-08 07:32:00,
2013-03-08 02:42:00,44.0,39.0,30.18,NE,50,0.0,0.0,81,0.00,,,0.00,,2013-03-08 07:42:00,
2013-03-08 02:51:00,44.0,39.0,30.18,NE,50,0.0,0.0,81,0.00,,,0.00,,2013-03-08 07:51:00,
2013-03-08 03:01:00,44.0,39.0,30.18,NE,50,0.0,0.0,81,0.00,,,0.00,,2013-03-08 08:01:00,
2013-03-08 03:11:00,44.0,39.0,30.18,NE,50,0.0,0.0,81,0.00,,,0.00,,2013-03-08 08:11:00,
2013-03-08 03:22:00,44.0,39.0,30.15,NE,50,0.0,0.0,81,0.00,,,0.00,,2013-03-08 08:22:00,
2013-03-08 03:32:00,44.0,39.0,30.15,NE,50,0.0,0.0,82,0.00,,,0.00,,2013-03-08 08:32:00,
2013-03-08 03:42:00,44.0,39.0,30.15,NE,50,0.0,0.0,82,0.00,,,0.00,,2013-03-08 08:42:00,
2013-03-08 03:52:00,44.0,39.0,30.15,NE,50,0.0,0.0,82,0.00,,,0.00,,2013-03-08 08:52:00,
2013-03-08 04:03:00,43.0,38.0,30.15,NE,50,0.0,0.0,82,0.00,,,0.00,,2013-03-08 09:03:00,
2013-03-08 04:11:00,43.0,38.0,30.15,NE,50,0.0,0.0,82,0.00,,,0.00,,2013-03-08 09:11:00,
2013-03-08 04:21:00,43.0,38.0,30.15,NE,50,0.0,0.0,83,0.00,,,0.00,,2013-03-08 09:21:00,
2013-03-08 04:32:00,43.0,38.0,30.15,NE,50,0.0,0.0,83,0.00,,,0.00,,2013-03-08 09:32:00,
2013-03-08 04:42:00,43.0,38.0,30.15,NE,50,0.0,0.0,83,0.00,,,0.00,,2013-03-08 09:42:00,
2013-03-08 04:52:00,43.0,38.0,30.15,NE,50,0.0,0.0,83,0.00,,,0.00,,2013-03-08 09:52:00,
2013-03-08 05:01:00,43.0,38.0,30.15,NE,50,0.0,0.0,83,0.00,,,0.00,,2013-03-08 10:01:00,
2013-03-08 05:11:00,43.0,38.0,30.15,NE,50,0.0,0.0,83,0.00,,,0.00,,2013-03-08 10:11:00,
2013-03-08 05:21:00,43.0,38.0,30.15,NE,50,0.0,0.0,83,0.00,,,0.00,,2013-03-08 10:21:00,
2013-03-08 05:32:00,43.0,38.0,30.18,NE,50,0.0,0.0,83,0.00,,,0.00,,2013-03-08 10:32:00,
2013-03-08 05:42:00,43.0,38.0,30.18,NE,50,0.0,0.0,83,0.00,,,0.00,,2013-03-08 10:42:00,
2013-03-08 05:51:00,43.0,38.0,30.18,NE,50,0.0,0.0,83,0.00,,,0.00,,2013-03-08 10:51:00,
2013-03-08 06:01:00,43.0,38.0,30.18,NE,50,0.0,0.0,84,0.00,,,0.00,,2013-03-08 11:01:00,
2013-03-08 06:11:00,43.0,38.0,30.18,NE,50,0.0,0.0,84,0.00,,,0.00,,2013-03-08 11:11:00,
2013-03-08 06:21:00,43.0,38.0,30.18,NE,50,0.0,0.0,84,0.00,,,0.00,,2013-03-08 11:21:00,
2013-03-08 06:32:00,42.0,37.0,30.18,NE,50,0.0,0.0,83,0.00,,,0.00,,2013-03-08 11:32:00,
2013-03-08 06:42:00,42.0,37.0,30.18,NE,50,0.0,0.0,83,0.00,,,0.00,,2013-03-08 11:42:00,
2013-03-08 06:52:00,42.0,37.0,30.18,NE,50,0.0,0.0,83,0.00,,,0.00,,2013-03-08 11:52:00,
2013-03-08 07:02:00,42.0,37.0,30.18,NE,50,0.0,0.0,83,0.00,,,0.00,,2013-03-08 12:02:00,
2013-03-08 07:11:00,42.0,37.0,30.18,NE,50,0.0,0.0,83,0.00,,,0.00,,2013-03-08 12:11:00,
2013-03-08 07:22:00,42.0,37.0,30.18,NE,50,0.0,0.0,83,0.00,,,0.00,,2013-03-08 12:22:00,
2013-03-08 07:32:00,42.0,37.0,30.18,NE,50,0.0,0.0,82,0.00,,,0.00,,2013-03-08 12:32:00,
2013-03-08 07:43:00,42.0,37.0,30.18,NE,50,0.0,0.0,82,0.00,,,0.00,,2013-03-08 12:43:00,
2013-03-08 07:52:00,42.0,37.0,30.18,NE,50,0.0,0.0,82,0.00,,,0.00,,2013-03-08 12:52:00,
2013-03-08 08:02:00,43.0,37.0,30.21,West,260,0.0,0.0,80,0.00,,,0.00,,2013-03-08 13:02:00,
2013-03-08 08:11:00,43.0,37.0,30.21,West,260,0.0,0.0,80,0.00,,,0.00,,2013-03-08 13:11:00,
2013-03-08 08:22:00,44.0,38.0,30.21,WSW,250,0.0,0.0,80,0.00,,,0.00,,2013-03-08 13:22:00,
2013-03-08 08:32:00,44.0,38.0,30.21,WSW,250,0.0,0.0,80,0.00,,,0.00,,2013-03-08 13:32:00,
2013-03-08 08:42:00,44.0,38.0,30.21,WSW,250,0.0,0.0,80,0.00,,,0.00,,2013-03-08 13:42:00,
2013-03-08 08:52:00,44.0,38.0,30.21,WSW,250,0.0,0.0,80,0.00,,,0.00,,2013-03-08 13:52:00,
2013-03-08 09:03:00,47.0,39.0,30.21,WSW,250,0.0,0.0,73,0.00,,,0.00,,2013-03-08 14:03:00,
2013-03-08 09:12:00,47.0,39.0,30.21,WSW,250,0.0,0.0,73,0.00,,,0.00,,2013-03-08 14:12:00,
2013-03-08 09:22:00,48.0,39.0,30.21,WSW,250,0.0,0.0,72,0.00,,,0.00,,2013-03-08 14:22:00,
2013-03-08 09:32:00,49.0,39.0,30.21,WSW,250,0.0,0.0,69,0.00,,,0.00,,2013-03-08 14:32:00,
2013-03-08 09:42:00,49.0,39.0,30.21,WSW,250,0.0,0.0,69,0.00,,,0.00,,2013-03-08 14:42:00,
2013-03-08 09:52:00,50.0,39.0,30.21,WSW,250,0.0,0.0,66,0.00,,,0.00,,2013-03-08 14:52:00,
2013-03-08 10:03:00,53.0,39.0,30.21,WSW,250,0.0,0.0,60,0.00,,,0.00,,2013-03-08 15:03:00,
2013-03-08 10:12:00,53.0,39.0,30.21,WSW,250,0.0,0.0,60,0.00,,,0.00,,2013-03-08 15:12:00,
2013-03-08 10:22:00,53.0,39.0,30.21,WSW,250,0.0,0.0,60,0.00,,,0.00,,2013-03-08 15:22:00,
2013-03-08 10:32:00,56.0,38.0,30.21,NW,315,5.0,13.0,50,0.00,,,0.00,,2013-03-08 15:32:00,
2013-03-08 10:42:00,56.0,38.0,30.21,NW,315,5.0,13.0,50,0.00,,,0.00,,2013-03-08 15:42:00,
2013-03-08 10:53:00,56.0,38.0,30.21,WSW,255,3.0,0.0,51,0.00,,,0.00,,2013-03-08 15:53:00,
2013-03-08 11:02:00,57.0,39.0,30.21,West,270,1.0,2.0,51,0.00,,,0.00,,2013-03-08 16:02:00,
2013-03-08 11:11:00,57.0,39.0,30.21,West,270,1.0,2.0,51,0.00,,,0.00,,2013-03-08 16:11:00,
2013-03-08 11:22:00,58.0,36.0,30.21,NE,50,1.0,2.0,43,0.00,,,0.00,,2013-03-08 16:22:00,
2013-03-08 11:32:00,59.0,38.0,30.21,WNW,295,1.0,1.0,45,0.00,,,0.00,,2013-03-08 16:32:00,
2013-03-08 11:42:00,59.0,38.0,30.21,WNW,295,1.0,1.0,45,0.00,,,0.00,,2013-03-08 16:42:00,
2013-03-08 11:52:00,59.0,38.0,30.21,WNW,295,1.0,1.0,45,0.00,,,0.00,,2013-03-08 16:52:00,
2013-03-08 12:03:00,60.0,38.0,30.21,NW,315,0.0,0.0,44,0.00,,,0.00,,2013-03-08 17:03:00,
2013-03-08 12:11:00,60.0,38.0,30.21,NW,315,0.0,0.0,44,0.00,,,0.00,,2013-03-08 17:11:00,
2013-03-08 12:22:00,60.0,36.0,30.21,NW,310,0.0,0.0,40,0.00,,,0.00,,2013-03-08 17:22:00,
2013-03-08 12:32:00,61.0,35.0,30.21,ENE,60,0.0,0.0,38,0.00,,,0.00,,2013-03-08 17:32:00,
2013-03-08 12:42:00,61.0,35.0,30.21,ENE,60,0.0,0.0,38,0.00,,,0.00,,2013-03-08 17:42:00,
2013-03-08 12:52:00,61.0,36.0,30.21,NNW,330,0.0,0.0,40,0.00,,,0.00,,2013-03-08 17:52:00,
2013-03-08 13:02:00,64.0,36.0,30.18,NW,310,1.0,2.0,35,0.00,,,0.00,,2013-03-08 18:02:00,
2013-03-08 13:11:00,64.0,36.0,30.18,NW,310,1.0,2.0,35,0.00,,,0.00,,2013-03-08 18:11:00,
2013-03-08 13:22:00,64.0,36.0,30.18,West,270,1.0,2.0,35,0.00,,,0.00,,2013-03-08 18:22:00,
2013-03-08 13:32:00,64.0,37.0,30.18,WNW,296,1.0,2.0,37,0.00,,,0.00,,2013-03-08 18:32:00,
2013-03-08 13:42:00,64.0,37.0,30.18,WNW,296,1.0,2.0,37,0.00,,,0.00,,2013-03-08 18:42:00,
2013-03-08 13:52:00,66.0,38.0,30.18,NNW,340,1.0,2.0,35,0.00,,,0.00,,2013-03-08 18:52:00,
2013-03-08 14:01:00,66.0,42.0,30.15,East,95,5.0,6.0,42,0.00,,,0.00,,2013-03-08 19:01:00,
2013-03-08 14:11:00,66.0,42.0,30.15,East,95,5.0,6.0,42,0.00,,,0.00,,2013-03-08 19:11:00,
2013-03-08 14:22:00,65.0,44.0,30.15,East,90,6.0,6.0,46,0.00,,,0.00,,2013-03-08 19:22:00,
2013-03-08 14:32:00,64.0,45.0,30.15,ENE,75,8.0,9.0,51,0.00,,,0.00,,2013-03-08 19:32:00,
2013-03-08 14:42:00,64.0,45.0,30.15,ENE,75,8.0,9.0,51,0.00,,,0.00,,2013-03-08 19:42:00,
2013-03-08 14:52:00,63.0,46.0,30.15,East,80,9.0,10.0,53,0.00,,,0.00,,2013-03-08 19:52:00,
2013-03-08 15:01:00,62.0,45.0,30.15,NE,55,10.0,14.0,53,0.00,,,0.00,,2013-03-08 20:01:00,
2013-03-08 15:11:00,62.0,45.0,30.15,NE,55,10.0,14.0,53,0.00,,,0.00,,2013-03-08 20:11:00,
2013-03-08 15:22:00,62.0,45.0,30.15,NE,55,10.0,14.0,53,0.00,,,0.00,,2013-03-08 20:22:00,
2013-03-08 15:32:00,62.0,45.0,30.15,East,90,6.0,8.0,53,0.00,,,0.00,,2013-03-08 20:32:00,
2013-03-08 15:42:00,62.0,45.0,30.15,East,90,6.0,8.0,53,0.00,,,0.00,,2013-03-08 20:42:00,
2013-03-08 15:53:00,62.0,45.0,30.15,East,80,8.0,10.0,54,0.00,,,0.00,,2013-03-08 20:53:00,
2013-03-08 16:02:00,61.0,44.0,30.15,East,80,7.0,9.0,53,0.00,,,0.00,,2013-03-08 21:02:00,
2013-03-08 16:11:00,61.0,44.0,30.15,East,80,7.0,9.0,53,0.00,,,0.00,,2013-03-08 21:11:00,
2013-03-08 16:22:00,61.0,44.0,30.15,East,80,8.0,9.0,54,0.00,,,0.00,,2013-03-08 21:22:00,
2013-03-08 16:32:00,61.0,45.0,30.15,East,90,7.0,8.0,55,0.00,,,0.00,,2013-03-08 21:32:00,
2013-03-08 16:42:00,61.0,45.0,30.15,East,90,7.0,8.0,55,0.00,,,0.00,,2013-03-08 21:42:00,
2013-03-08 16:52:00,61.0,45.0,30.15,East,90,5.0,5.0,55,0.00,,,0.00,,2013-03-08 21:52:00,
2013-03-08 17:01:00,60.0,44.0,30.15,ENE,75,3.0,6.0,56,0.00,,,0.00,,2013-03-08 22:01:00,
2013-03-08 17:11:00,60.0,44.0,30.15,ENE,75,3.0,6.0,56,0.00,,,0.00,,2013-03-08 22:11:00,
2013-03-08 17:22:00,60.0,44.0,30.15,ENE,75,3.0,6.0,56,0.00,,,0.00,,2013-03-08 22:22:00,
2013-03-08 17:32:00,59.0,43.0,30.15,East,80,6.0,7.0,56,0.00,,,0.00,,2013-03-08 22:32:00,
2013-03-08 17:42:00,59.0,43.0,30.15,East,80,6.0,7.0,56,0.00,,,0.00,,2013-03-08 22:42:00,
2013-03-08 17:52:00,59.0,44.0,30.15,ENE,75,5.0,5.0,58,0.00,,,0.00,,2013-03-08 22:52:00,
2013-03-08 18:02:00,58.0,44.0,30.15,ENE,60,3.0,6.0,59,0.00,,,0.00,,2013-03-08 23:02:00,
2013-03-08 18:12:00,58.0,44.0,30.15,ENE,60,3.0,6.0,59,0.00,,,0.00,,2013-03-08 23:12:00,
2013-03-08 18:22:00,58.0,44.0,30.15,East,90,3.0,6.0,60,0.00,,,0.00,,2013-03-08 23:22:00,
2013-03-08 18:32:00,57.0,44.0,30.15,East,90,2.0,2.0,62,0.00,,,0.00,,2013-03-08 23:32:00,
2013-03-08 18:42:00,57.0,44.0,30.15,East,90,2.0,2.0,62,0.00,,,0.00,,2013-03-08 23:42:00,
2013-03-08 18:52:00,57.0,44.0,30.15,East,90,2.0,2.0,62,0.00,,,0.00,,2013-03-08 23:52:00,
2013-03-08 19:02:00,56.0,44.0,30.15,ENE,65,0.0,0.0,64,0.00,,,0.00,,2013-03-09 00:02:00,
2013-03-08 19:12:00,56.0,44.0,30.15,ENE,65,0.0,0.0,64,0.00,,,0.00,,2013-03-09 00:12:00,
2013-03-08 19:22:00,56.0,44.0,30.18,ENE,65,0.0,0.0,64,0.00,,,0.00,,2013-03-09 00:22:00,
2013-03-08 19:32:00,55.0,43.0,30.18,NE,50,0.0,0.0,65,0.00,,,0.00,,2013-03-09 00:32:00,
2013-03-08 19:42:00,55.0,43.0,30.18,NE,50,0.0,0.0,65,0.00,,,0.00,,2013-03-09 00:42:00,
2013-03-08 19:52:00,55.0,44.0,30.18,NE,50,0.0,0.0,67,0.00,,,0.00,,2013-03-09 00:52:00,
2013-03-08 20:02:00,55.0,44.0,30.18,NE,50,0.0,0.0,67,0.00,,,0.00,,2013-03-09 01:02:00,
2013-03-08 20:12:00,54.0,44.0,30.18,NE,50,0.0,0.0,68,0.00,,,0.00,,2013-03-09 01:12:00,
2013-03-08 20:22:00,54.0,44.0,30.18,NE,50,0.0,0.0,68,0.00,,,0.00,,2013-03-09 01:22:00,
2013-03-08 20:32:00,54.0,44.0,30.18,NE,50,0.0,0.0,68,0.00,,,0.00,,2013-03-09 01:32:00,
2013-03-08 20:42:00,54.0,44.0,30.18,NE,50,0.0,0.0,68,0.00,,,0.00,,2013-03-09 01:42:00,
2013-03-08 20:51:00,53.0,43.0,30.18,NE,35,0.0,0.0,69,0.00,,,0.00,,2013-03-09 01:51:00,
2013-03-08 21:01:00,53.0,43.0,30.21,NE,35,0.0,0.0,69,0.00,,,0.00,,2013-03-09 02:01:00,
2013-03-08 21:11:00,53.0,43.0,30.21,NE,35,0.0,0.0,69,0.00,,,0.00,,2013-03-09 02:11:00,
2013-03-08 21:21:00,53.0,43.0,30.21,NE,35,0.0,0.0,69,0.00,,,0.00,,2013-03-09 02:21:00,
2013-03-08 21:31:00,53.0,43.0,30.21,NE,35,0.0,0.0,70,0.00,,,0.00,,2013-03-09 02:31:00,
2013-03-08 21:41:00,53.0,44.0,30.21,NE,35,0.0,0.0,71,0.00,,,0.00,,2013-03-09 02:41:00,
2013-03-08 21:51:00,53.0,44.0,30.21,NE,35,0.0,0.0,71,0.00,,,0.00,,2013-03-09 02:51:00,
2013-03-08 22:01:00,53.0,44.0,30.21,NE,35,0.0,0.0,71,0.00,,,0.00,,2013-03-09 03:01:00,
2013-03-08 22:11:00,53.0,44.0,30.21,NE,35,0.0,0.0,71,0.00,,,0.00,,2013-03-09 03:11:00,
2013-03-08 22:21:00,53.0,44.0,30.21,NE,35,0.0,0.0,71,0.00,,,0.00,,2013-03-09 03:21:00,
2013-03-08 22:31:00,52.0,43.0,30.21,NE,35,0.0,0.0,72,0.00,,,0.00,,2013-03-09 03:31:00,
2013-03-08 22:42:00,52.0,43.0,30.21,NE,35,0.0,0.0,72,0.00,,,0.00,,2013-03-09 03:42:00,
2013-03-08 22:52:00,52.0,44.0,30.21,NE,35,0.0,0.0,73,0.00,,,0.00,,2013-03-09 03:52:00,
2013-03-08 23:01:00,51.0,43.0,30.21,NE,35,0.0,0.0,73,0.00,,,0.00,,2013-03-09 04:01:00,
2013-03-08 23:11:00,51.0,43.0,30.21,NE,35,0.0,0.0,73,0.00,,,0.00,,2013-03-09 04:11:00,
2013-03-08 23:22:00,51.0,43.0,30.21,NE,35,0.0,0.0,73,0.00,,,0.00,,2013-03-09 04:22:00,
2013-03-08 23:32:00,51.0,43.0,30.21,NE,35,0.0,0.0,74,0.00,,,0.00,,2013-03-09 04:32:00,
2013-03-08 23:42:00,51.0,43.0,30.21,NE,35,0.0,0.0,74,0.00,,,0.00,,2013-03-09 04:42:00,
2013-03-08 23:51:00,50.0,42.0,30.21,NE,35,0.0,0.0,75,0.00,,,0.00,,2013-03-09 04:51:00,